Location: Lawrence Hall of Science
(37.8785°N, 122.2415°W)
Time: 21:50:55
(UTC-07:00)

Daily predictions for brighter satellites

Satellite Brightness Start Highest point End
(mag) Time Altitude Azimuth Time Altitude Azimuth Time Altitude Azimuth
ERS-2 3.0 20:11:27 10° SE 20:14:45 32° ENE 20:18:04 10° N
Cosmos 1455 3.4 20:12:49 10° SE 20:15:52 23° E 20:18:56 10° NE
CZ-2D R/B 3.5 20:12:44 10° SSE 20:16:25 51° ENE 20:20:07 10° N
Cosmos 2074 Rocket 4.2 20:13:05 10° S 20:19:22 80° W 20:25:42 10° N
Sich 1 3.4 20:15:31 10° N 20:19:35 41° E 20:23:36 10° SSE
Cosmos 2333 Rocket 2.5 20:14:57 10° S 20:20:19 46° ESE 20:25:41 10° NE
ATLAS 2A CENTAUR R/B 4.4 20:14:43 10° WSW 20:20:49 20° SSW 20:23:32 10° SSE
Cosmos 1844 Rocket 2.8 20:19:37 10° NNW 20:25:17 66° ENE 20:30:53 10° SSE
Cosmos 1892 3.3 20:21:42 10° N 20:25:20 36° E 20:28:55 10° SSE
COSMOS 2428 2.8 20:19:41 10° SSW 20:25:25 89° ESE 20:31:11 10° NNE
Cosmos 1610 Rocket 4.4 20:20:20 10° S 20:26:26 77° E 20:32:36 10° N
Cosmos 2333 4.3 20:21:17 10° SSW 20:26:57 85° WNW 20:32:36 10° NNE
YAOGAN 6 3.4 20:23:56 10° SE 20:27:08 31° ENE 20:30:24 10° N
Cosmos 1809 Rocket 4.4 20:24:10 10° S 20:30:17 74° E 20:36:28 10° N
Envisat 3.0 20:25:39 10° SSE 20:30:42 77° ENE 20:35:48 10° N
Cosmos 2251 Rocket 3.6 20:26:51 10° NNW 20:32:14 70° ENE 20:37:34 10° SSE
Cosmos 1844 3.9 20:26:43 10° NNW 20:32:21 58° ENE 20:38:00 10° SE
Cosmos 2219 Rocket 2.2 20:28:51 10° SSW 20:34:29 73° ESE 20:40:07 10° NNE
Cosmos 2237 Rocket 2.7 20:31:44 10° SSE 20:36:45 35° ESE 20:41:48 10° NE
Meteor 2-2 Rocket 4.3 20:31:06 10° S 20:36:54 71° E 20:42:49 10° NNE
Genesis I 4.5 20:33:37 10° N 20:37:10 28° NE 20:40:01 14° ESE
Cosmos 1633 Rocket 3.1 20:37:28 10° N 20:41:45 56° E 20:46:01 10° SSE
Meteor 2-14 Rocket 4.4 20:40:31 10° S 20:46:33 74° E 20:52:40 10° N
Cosmos 1340 3.5 20:44:09 10° SSW 20:47:51 53° W 20:51:35 10° N
Cosmos 2278 Rocket 3.0 20:42:51 10° N 20:47:57 33° ENE 20:51:43 16° ESE
Cosmos 2098 Rocket 4.5 20:47:46 16° ESE 20:49:36 19° E 20:52:34 10° NE
Cosmos 1515 Rocket 4.0 20:47:01 10° SSE 20:51:11 40° E 20:55:22 10° NNE
Nadezhda 3 Rocket 4.0 20:45:40 10° N 20:52:00 84° E 20:58:21 10° S
Meteor 2-15 Rocket 4.4 20:48:38 10° N 20:54:49 87° E 21:00:56 10° S
Cosmos 2228 Rocket 3.3 20:52:26 10° SSE 20:56:36 45° E 21:00:49 10° NNE
Meteor 2-16 Rocket 4.4 20:50:36 10° S 20:56:41 73° E 21:02:47 10° NNE
ASTRO E2 4.3 20:57:43 10° SSW 21:00:30 18° SSE 21:00:58 18° SSE
Cosmos 1825 3.1 21:00:21 10° NNE 21:03:41 29° ENE 21:04:39 25° ESE
Thor Agena Rocket 4.0 20:58:35 10° N 21:03:47 68° WNW 21:09:02 10° SSW
SL-24 R/B - RUBIN 2 4.3 21:01:45 10° NW 21:05:56 48° WSW 21:09:50 12° S
Sakura Rocket 4.2 21:03:39 10° SW 21:07:25 24° S 21:08:34 21° SSE
Cosmos 1328 Rocket 3.6 21:05:24 10° S 21:09:48 81° W 21:14:15 10° N
OAO 2 Rocket 4.0 21:05:03 10° W 21:09:59 44° SSW 21:12:37 24° SE
ATLAS CENTAUR R/B 2.0 21:07:19 10° SW 21:10:51 50° NW 21:14:33 10° NNE
Spot 2 Rocket 3.4 21:09:25 16° SSE 21:13:33 74° ENE 21:18:38 10° N
SL-8 R/B 3.8 21:10:24 10° WSW 21:15:11 75° NNW 21:20:00 10° NE
BREEZE-M DEB (TANK) 4.0 21:14:31 10° NW 21:16:56 18° NNE 21:17:44 16° NE
Resurs 01 Rocket 1.9 21:17:09 12° S 21:21:15 66° WSW 21:25:40 10° NNW
ATLAS 2AS CENTAUR R/B 2.9 21:14:29 10° NNW 21:22:24 87° ENE 21:27:11 24° SSE
Cosmos 1470 Rocket 3.5 21:20:36 10° N 21:25:01 89° ENE 21:27:42 24° S
GEOS 3 Rocket 4.4 21:20:23 10° NE 21:24:42 30° ESE 21:24:42 30° ESE
SL-16 R/B 2.7 21:24:48 27° SSE 21:26:59 37° ESE 21:32:08 10° NE
Cosmos 1939 Rocket 4.0 21:24:56 10° S 21:28:34 40° W 21:32:16 10° NNW
ARGOS 3.6 21:29:47 33° ESE 21:31:30 44° ENE 21:36:33 10° N
Cosmos 1869 3.2 21:30:47 37° SSE 21:32:13 69° E 21:36:14 10° NNE
SL-08 RB Rocket 4.5 21:34:41 32° ENE 21:34:56 32° ENE 21:38:56 10° N
Cosmos 1959 Rocket 4.3 21:31:04 10° S 21:37:14 82° E 21:43:23 10° N
Meteor 2-3 Rocket 4.5 21:33:52 10° NNW 21:39:16 51° W 21:44:43 10° SSW
ATLAS 2A CENTAUR R/B 4.2 21:23:36 10° SW 21:40:54 38° S 21:44:53 30° SE
Cosmos 1727 Rocket 4.1 21:34:56 10° N 21:40:59 53° E 21:42:59 38° SE
Cosmos 1408 3.0 21:42:36 10° NNW 21:46:14 60° W 21:47:03 46° SSW
Meteor 2-10 Rocket 3.6 21:42:55 25° S 21:46:20 72° E 21:52:08 10° NNE
ERS-1 Rocket 3.3 21:50:08 44° E 21:50:33 45° ENE 21:55:19 10° N
NOSS 3-4 (A) 4.2 21:45:55 10° NNW 21:52:45 50° NE 21:55:21 36° E
NOSS 3-4 (C) 4.2 21:46:01 10° NNW 21:52:51 49° NE 21:55:26 36° E
USA 81 4.1 21:47:57 10° N 21:53:09 56° E 21:53:44 53° ESE
Cosmos 1933 Rocket 4.2 21:49:19 10° NNW 21:53:34 51° W 21:55:26 30° SSW
Cosmos 407 Rocket 3.6 21:49:18 10° N 21:54:18 52° ENE 21:54:44 50° E
Cosmos 1151 Rocket 4.4 21:50:45 10° SW 21:54:41 36° WNW 21:58:39 10° N
Cosmos 2218 Rocket 4.2 21:48:37 10° SSW 21:54:56 73° W 22:01:21 10° N
H-2A R/B 2.0 21:57:48 57° E 21:58:16 59° ENE 22:03:10 10° N
Cosmos 2344 3.6 21:52:00 10° S 21:59:19 50° ESE 22:06:57 10° NE
Cosmos 2297 3.9 21:55:06 10° NNW 22:00:38 51° ENE 22:01:18 48° E
BREEZE-M DEB (TANK) 4.0 21:59:53 10° WNW 22:01:36 27° WNW 22:01:36 27° WNW
USA 267 3.3 21:57:14 10° NE 22:03:35 51° SE 22:09:54 10° SSW
Cosmos 2333 Rocket 4.5 22:00:14 10° WSW 22:04:46 24° WNW 22:09:20 10° N
Cosmos 2366 rocket 4.3 22:00:10 10° SSW 22:06:15 65° W 22:12:30 10° N
Cosmos 2369 Rocket 4.3 22:04:09 10° NNE 22:06:32 13° NE 22:07:06 12° NE
Cosmos 676 Rocket 4.4 22:09:30 10° N 22:14:13 48° NE 22:14:13 48° NE
MetOp-A 4.2 22:14:03 56° SSW 22:15:07 73° WSW 22:20:30 10° NNW
Cosmos 1869 Rocket 3.9 22:11:42 10° N 22:15:15 57° N 22:15:15 57° N
Helios 1A 3.9 22:21:58 41° N 22:21:58 41° N 22:24:50 10° N
Cosmos 2237 Rocket 4.0 22:15:54 10° WSW 22:20:48 30° WNW 22:25:43 10° N
Cosmos 1862 4.3 22:18:22 10° N 22:21:10 43° N 22:21:10 43° N
Cosmos 2056 Rocket 4.4 22:18:19 10° SW 22:23:34 49° WNW 22:28:49 10° N
Cosmos 405 Rocket 4.2 22:25:20 33° N 22:25:20 33° N 22:27:36 10° N
Cosmos 1452 Rocket 4.3 22:26:08 40° NE 22:26:08 40° NE 22:29:35 10° NNE
Terra 3.5 22:27:10 24° NE 22:27:10 24° NE 22:29:42 10° N
CZ-4C R/B 4.1 22:29:46 17° NE 22:29:46 17° NE 22:31:10 10° NE
Cosmos 2278 Rocket 3.5 22:26:58 10° NW 22:31:56 32° WSW 22:33:36 27° SW
ATLAS 5 CENTAUR R/B 4.2 22:30:39 10° N 22:34:40 18° NE 22:35:41 18° NE
SPOT 5 3.7 22:47:02 44° NNW 22:47:02 44° NNW 22:50:05 10° NNW
Centaur D-1A AC-31 3.8 22:42:18 10° WSW 22:46:01 19° SW 22:46:01 19° SW
Cosmos 1140 Rocket 4.0 22:43:10 10° NNW 22:47:10 54° N 22:47:10 54° N
Lacrosse 5 3.9 22:45:07 10° NNW 22:48:36 18° NNE 22:48:55 18° NNE
Cosmos 1934 Rocket 4.3 23:02:01 58° NNE 23:02:01 58° NNE 23:06:49 10° N
SL-16 R/B 3.9 23:06:24 11° WSW 23:11:06 29° WNW 23:16:01 10° N
BREEZE-M DEB (TANK) 4.2 22:54:22 10° WNW 23:18:37 75° NNE 23:19:22 70° ENE
Cosmos 1943 Rocket 3.8 23:14:30 10° N 23:17:39 26° NNE 23:17:39 26° NNE
H-2A R/B 4.4 23:38:25 14° W 23:38:25 14° W 23:40:35 10° WNW
USA 267 4.1 23:40:19 10° NE 23:46:29 46° NW 23:52:37 10° WSW
Cosmos 2369 Rocket 3.6 23:45:44 10° NNW 23:48:53 34° NNW 23:48:53 34° NNW
